Retour au catalogue

STARLINK-35392

ActifCommunicationsVLEO
NORAD 65823·PAYLOAD·🇺🇸 United States

Lancé Sep 29, 2025 depuis Vandenberg Space Force Base

Loading…

Prochains Passages (prochaines 24 heures)

TLE

FraisSource: CelesTrak SupGP

Époque: Sep 14, 2026, 22:42 UTC

1 65823C 25221A   26257.94631944  .00056120  00000+0  16583-2 0  2573
2 65823  53.1580 287.5434 0001075  89.5032 276.6684 15.34358437    14

Suivez STARLINK-35392 en temps réel avec AllMySat

Download on the App Store